Location: Unspecified
(47.4992°N, 121.7766°W)
Time: 17:14:02
(UTC-08:00)

CZ-3 Stage 3 - Visible Passes

Search period start: 22 January 2019 00:00
Search period end: 01 February 2019 00:00
Orbit: 421 x 34772 km, 30.4° (Epoch: 21 January)

Date Brightness Start Highest point End Pass type
(mag) Time Alt. Az. Time Alt. Az. Time Alt. Az.
22 Jan 7.5 09:05:18 10° SW 13:15:10 63° SSE 18:19:38 10° S visible
23 Jan 7.5 05:35:59 10° SE 06:12:03 23° E 14:26:39 10° ESE visible
23 Jan 10.2 17:05:28 10° WNW 18:13:33 16° WNW 20:01:48 10° WNW visible
24 Jan 8.5 12:38:50 10° W 14:36:03 54° WSW 21:00:04 10° WSW visible
25 Jan 7.4 08:55:09 10° SW 13:02:06 63° SSE 18:08:55 10° S visible
26 Jan 7.4 05:25:32 10° SE 05:58:07 23° E 14:15:36 10° ESE visible
26 Jan 10.1 16:54:00 10° WNW 18:01:48 16° WNW 19:50:11 10° WNW visible
27 Jan 8.4 12:28:34 10° W 14:24:06 54° WSW 20:46:55 10° WSW visible
28 Jan 7.4 08:44:59 10° SW 12:48:53 62° SSE 17:58:10 10° S visible
29 Jan 7.3 05:15:07 10° SSE 05:45:02 24° E 14:04:30 10° ESE visible
29 Jan 10.1 16:42:38 10° WNW 17:50:02 16° WNW 19:38:21 10° WNW visible
30 Jan 8.4 12:18:19 10° W 14:12:08 54° WSW 20:33:39 10° WSW visible
31 Jan 7.3 08:34:51 10° SW 12:35:31 62° SSE 17:47:24 10° S visible
